[TLELIST] Archives

 

[TLELIST] Current TLEs

March 25th 2025 PST

HST 1 20580U 90037B 25083.87396965 .00016103 00000-0 63770-3 0 9992 2 20580 28.4669 255.9381 0001511 227.3681 132.6786 15.23955997719805 ISS (ZARYA) 1 25544U 98067A 25084.07965278 .00033861 00000-0 59879-3 0 9995 2 25544 51.6396 3.6030 0003529 50.4782 146.5284 15.49994558502117 CXO 1 25867U 99040B 25082.17080422 .00001164 00000-0 00000-0 0 9993 2 25867 47.5274 134.1331 8548680 307.8430 0.4075 0.37803186 15614 ...Continue Reading

[TLELIST] Current TLEs

March 24th 2025 PST

HST 1 20580U 90037B 25082.89165243 .00015749 00000-0 62410-3 0 9991 2 20580 28.4670 262.5827 0001569 212.9844 147.0652 15.23924958719917 ISS (ZARYA) 1 25544U 98067A 25082.96554193 .00035444 00000-0 62786-3 0 9991 2 25544 51.6390 9.1204 0004001 46.9459 49.3885 15.49921332501949 CXO 1 25867U 99040B 25082.17080422 .00001164 00000-0 00000-0 0 9993 2 25867 47.5274 134.1331 8548680 307.8430 0.4075 0.37803186 15614 ...Continue Reading

[TLELIST] Current TLEs

March 23rd 2025 PST

HST 1 20580U 90037B 25081.90931545 .00018709 00000-0 74338-3 0 9999 2 20580 28.4675 269.2272 0001635 200.3268 159.7261 15.23893966719500 ISS (ZARYA) 1 25544U 98067A 25082.17457538 .00038219 00000-0 67743-3 0 9990 2 25544 51.6369 13.0434 0003824 42.3986 317.7298 15.49868499501822 CXO 1 25867U 99040B 25082.17080418 .00001164 00000-0 00000-0 0 9998 2 25867 47.5274 134.1332 8548683 307.8429 0.4075 0.37802961 15616 ...Continue Reading

[TLELIST] Current TLEs

March 22nd 2025 PST

HST 1 20580U 90037B 25080.86146500 .00014496 00000-0 57514-3 0 9998 2 20580 28.4675 276.3152 0001788 187.7202 172.3365 15.23852505719343 ISS (ZARYA) 1 25544U 98067A 25081.20736656 .00036384 00000-0 64714-3 0 9990 2 25544 51.6371 17.8349 0003828 38.0515 322.0743 15.49793542501679 CXO 1 25867U 99040B 25082.17080418 .00001164 00000-0 00000-0 0 9998 2 25867 47.5274 134.1332 8548683 307.8429 0.4075 0.37802961 15616 ...Continue Reading

[TLELIST] Current TLEs

March 21st 2025 PST

HST 1 20580U 90037B 25079.94457462 .00014491 00000-0 57535-3 0 9995 2 20580 28.4679 282.5157 0001873 176.3116 183.7492 15.23827258719203 ISS (ZARYA) 1 25544U 98067A 25080.17562821 .00025207 00000-0 45251-3 0 9993 2 25544 51.6371 22.9449 0003815 34.4533 325.6702 15.49726030501518 CXO 1 25867U 99040B 25082.17080418 .00001164 00000-0 00000-0 0 9998 2 25867 47.5274 134.1332 8548683 307.8429 0.4075 0.37802961 15616 ...Continue Reading

[TLELIST] Current TLEs

March 20th 2025 PST

HST 1 20580U 90037B 25078.96217537 .00016507 00000-0 65695-3 0 9999 2 20580 28.4684 289.1592 0001818 164.7659 195.2990 15.23799690719318 ISS (ZARYA) 1 25544U 98067A 25079.20833886 .00026889 00000-0 48293-3 0 9993 2 25544 51.6367 27.7354 0003920 31.1185 329.0036 15.49675134501364 CXO 1 25867U 99040B 25079.52694452 .00001071 00000-0 00000-0 0 9999 2 25867 47.4731 134.2525 8551754 307.8097 0.4161 0.37806936 15603 ...Continue Reading

[TLELIST] Current TLEs

March 19th 2025 PST

HST 1 20580U 90037B 25077.84876591 .00015075 00000-0 60000-3 0 9990 2 20580 28.4684 296.6886 0001902 151.5800 208.4898 15.23763675718882 ISS (ZARYA) 1 25544U 98067A 25078.17652693 .00023762 00000-0 42871-3 0 9996 2 25544 51.6367 32.8449 0003904 27.4067 332.7127 15.49618887501202 CXO 1 25867U 99040B 25079.52694452 .00001071 00000-0 00000-0 0 9999 2 25867 47.4731 134.2525 8551754 307.8097 0.4161 0.37806936 15603 ...Continue Reading

[TLELIST] Current TLEs

March 18th 2025 PST

HST 1 20580U 90037B 25076.93182115 .00014327 00000-0 57034-3 0 9993 2 20580 28.4689 302.8878 0001999 142.2192 217.8543 15.23735667718741 ISS (ZARYA) 1 25544U 98067A 25076.89181171 -.00124587 00000-0 -22480-2 0 9993 2 25544 51.6544 39.2330 0004086 45.4539 343.1317 15.49509203501001 CXO 1 25867U 99040B 25079.52694452 .00001071 00000-0 00000-0 0 9999 2 25867 47.4731 134.2525 8551754 307.8097 0.4161 0.37806936 15603 ...Continue Reading

[TLELIST] Current TLEs

March 17th 2025 PST

HST 1 20580U 90037B 25076.01486044 .00012413 00000-0 49355-3 0 9991 2 20580 28.4686 309.0885 0002028 132.5217 227.5548 15.23708135718865 ISS (ZARYA) 1 25544U 98067A 25076.17748099 .00024772 00000-0 43866-3 0 9997 2 25544 51.6367 42.7442 0006413 30.4936 329.6424 15.50114121500895 CXO 1 25867U 99040B 25076.88324346 .00000984 00000-0 00000-0 0 9999 2 25867 47.4433 134.3488 8555282 307.7875 0.4564 0.37810205 15605 ...Continue Reading

[TLELIST] Current TLEs

March 17th 2025 PST

HST 1 20580U 90037B 25076.01486044 .00012413 00000-0 49355-3 0 9991 2 20580 28.4686 309.0885 0002028 132.5217 227.5548 15.23708135718865 ISS (ZARYA) 1 25544U 98067A 25076.17748099 .00024772 00000-0 43866-3 0 9997 2 25544 51.6367 42.7442 0006413 30.4936 329.6424 15.50114121500895 CXO 1 25867U 99040B 25076.88324346 .00000984 00000-0 00000-0 0 9999 2 25867 47.4433 134.3488 8555282 307.7875 0.4564 0.37810205 15605 ...Continue Reading
  • This mailing list is a public mailing list - anyone may join or leave, at any time.
  • This mailing list is announce-only.

International Space Station (ISS) / Hubble Space Telescope (HST) / Chandra X-Ray Observatory Orbital Data via EMAIL

Privacy Policy:

Private list